Location: ?????????
(38.0736°N, 23.2119°E)
Time: 12:49:56
(UTC+00:00)

ADEOS - Pass Details

Date: 18 April 2024
Orbit: 790 x 793 km, 98.9° (Epoch: 19 May)

Event Time Altitude Azimuth Distance (km) Brightness Sun altitude
Rises 17:39:44 0° 175° (S) 3,277 6.5 -7.1°
Reaches altitude 10° 17:42:05 10° 180° (S) 2,352 5.8 -7.5°
Maximum altitude 17:47:11 58° 259° (WSW) 923 4.3 -8.5°
Drops below altitude 10° 17:52:20 10° 338° (NNW) 2,368 6.7 -9.4°
Sets 17:54:43 0° 342° (NNW) 3,301 7.4 -9.8°
